GW1378 Weather Reports


time (UTC)temp
C
wind
direction
speed
KPH
gust
KPH
rain 1hr
cm
rain 24hr
cm
rain mn
cm
humidity
%
barometer
mb
20260505051500 2 335 0.0 0.0 0.00 0.46 0.46 83 1022.9
20260505050128 2 335 0.0 0.0 0.03 0.46 0.46 83 1023.0
20260505041611 2 335 0.0 0.0 0.18 0.46 0.46 84 1023.2
20260505034558 3 335 0.0 6.4 0.10 0.36 0.36 84 1023.2
20260505033058 3 312 0.0 0.0 0.13 0.30 0.30 83 1022.7
20260505031600 3 312 0.0 0.0 0.10 0.28 0.28 84 1022.6
20260505030057 3 312 0.0 3.2 0.10 0.28 0.28 84 1022.2
20260505024555 4 312 0.0 0.0 0.08 0.25 0.25 84 1022.0
20260505023056 4 312 0.0 0.0 0.00 0.18 0.18 84 1021.9
20260505021555 4 312 0.0 0.0 0.00 0.18 0.18 84 1021.4
20260505020055 5 312 0.0 1.6 0.00 0.18 0.18 84 1021.1
20260505014606 5 312 0.0 1.6 0.00 0.18 0.18 84 1021.2
20260505013054 5 312 0.0 1.6 0.00 0.18 0.18 84 1020.7
20260505011602 5 312 0.0 0.0 0.03 0.18 0.18 84 1021.1
20260505010055 5 312 0.0 1.6 0.08 0.18 0.18 84 1020.9
20260505004553 5 312 0.0 0.0 0.13 0.18 0.18 84 1020.6
20260505003052 5 312 0.0 1.6 0.15 0.18 0.18 84 1020.7
20260505001604 5 312 0.0 1.6 0.15 0.15 0.15 84 1021.1
20260505000113 5 312 1.6 6.4 0.10 0.10 0.10 82 1021.5
20260504234606 6 274 3.2 6.4 0.05 0.05 0.05 78 1020.9
20260504233050 7 254 4.8 8.0 0.03 0.03 0.03 70 1020.3
20260504231546 8 311 1.6 8.0 0.00 0.00 0.00 56 1019.5
20260504230046 9 71 1.6 19.3 0.00 0.00 0.00 52 1018.8
20260504224603 11 5 6.4 16.1 0.00 0.00 0.00 46 1018.5
20260504223046 12 316 4.8 9.7 0.00 0.00 0.00 44 1018.4
20260504221543 12 88 4.8 11.3 0.00 0.00 0.00 39 1018.5
20260504220042 12 74 1.6 6.4 0.00 0.00 0.00 36 1018.5
20260504214541 13 121 4.8 12.9 0.00 0.00 0.00 37 1018.6
20260504213100 13 123 6.4 12.9 0.00 0.00 0.00 36 1018.6
20260504211541 13 126 1.6 6.4 0.00 0.00 0.00 37 1018.6
20260504210040 13 20 3.2 12.9 0.00 0.00 0.00 37 1018.5
20260504204538 13 57 4.8 17.7 0.00 0.00 0.00 41 1018.7
20260504203037 12 338 3.2 14.5 0.00 0.00 0.00 42 1018.9
20260504201537 11 355 8.0 14.5 0.00 0.00 0.00 45 1019.0
20260504200036 10 30 3.2 17.7 0.00 0.00 0.00 51 1018.9
20260504194539 12 306 8.0 19.3 0.00 0.00 0.00 38 1019.1
20260504193040 13 57 4.8 17.7 0.00 0.00 0.00 33 1018.9
20260504191533 14 84 9.7 19.3 0.00 0.00 0.00 32 1019.0
20260504190032 15 9 4.8 12.9 0.00 0.00 0.00 30 1019.4
20260504184533 16 348 3.2 14.5 0.00 0.00 0.00 26 1019.0
20260504183028 16 309 3.2 14.5 0.00 0.00 0.00 23 1019.2
20260504181524 15 88 1.6 16.1 0.00 0.00 0.00 26 1019.4
20260504180022 15 93 6.4 11.3 0.00 0.00 0.00 25 1019.7
20260504174519 13 5 3.2 16.1 0.00 0.00 0.00 28 1020.1
20260504173031 15 355 3.2 14.5 0.00 0.00 0.00 28 1020.3
20260504171522 13 315 4.8 12.9 0.00 0.00 0.00 29 1020.6
20260504090119 -2 203 0.0 4.8 0.00 0.00 0.00 71 1024.3
20260504081554 -1 203 0.0 3.2 0.00 0.00 0.00 69 1024.6